Weather History for Concordia, KS

Change the Weather History Date:

Friday, October 8, 2010

  Actual Average Record
Temperature  
Mean Temperature 73 °F 58 °F  
Max Temperature 91 °F 70 °F 91 °F (1980)
Min Temperature 55 °F 47 °F 21 °F (2000)
Degree Days  
Heating Degree Days 0 8  
Month to date heating degree days 54  
Since 1 July heating degree days 127  
Cooling Degree Days 8 1  
Month to date cooling degree days 12  
Year to date cooling degree days 1338  
Growing Degree Days 23 (Base 50)    
Moisture  
Dew Point 49 °F    
Average Humidity 49    
Maximum Humidity 89    
Minimum Humidity 19    
Precipitation  
Precipitation 0.00 in 0.06 in 1.96 in (1909)
Month to date precipitation 0.59  
Year to date precipitation 24.60  
Snow  
Snow 0.00 in 0.00 in 2.50 in (1992)
Month to date snowfall 0.0  
Year to date snowfall 13.7  
Since 1 July snowfall 0.0  
Snow Depth -    
Sea Level Pressure  
Sea Level Pressure 29.98 in    
Wind  
Wind Speed 11 mph (South)    
Max Wind Speed 21 mph    
Max Gust Speed 26 mph    
Visibility 10 miles    
Events      
T = Trace of Precipitation, MM = Missing Value Source: NWS Daily Summary

Daily Weather History Graph

Daily Weather History Graph

Search for Another Location

Airport:

Trip Planner

Search our weather history database for the weather conditions in past years. The results will help you decide how hot, cold, wet, or windy it might be!

Date:

Astronomy

Oct. 08, 2010 Rise Set
Actual Time 7:33 AM CDT 7:02 PM CDT
Civil Twilight 7:06 AM CDT 7:28 PM CDT
Nautical Twilight 6:35 AM CDT 8:00 PM CDT
Astronomical Twilight 6:04 AM CDT 8:31 PM CDT
Moon 8:40 AM CDT (10/8) 7:17 PM CDT (10/8)
Length of Visible Light 12h 22m
Length of Day
11h 28m
New Moon, 1% of the Moon is Illuminated
Oct 8
New Moon
Oct 14
First Quarter
Oct 22
Full
Oct 30
Last Quarter
Nov 5
New

Hourly Weather History & Observations

Time (CDT) Temp. Dew Point Humidity Pressure Visibility Wind Dir Wind Speed Gust Speed Precip Events Conditions
12:55 AM 64.9 °F 54.0 °F 68% 30.06 in 10.0 mi SSE 12.7 mph - N/A   Clear
1:55 AM 64.0 °F 54.0 °F 70% 30.05 in 10.0 mi SSE 11.5 mph - N/A   Clear
2:55 AM 63.0 °F 54.0 °F 72% 30.04 in 10.0 mi SSE 10.4 mph - N/A   Clear
3:55 AM 60.1 °F 54.0 °F 80% 30.03 in 10.0 mi SSE 5.8 mph - N/A   Clear
4:55 AM 57.0 °F 53.1 °F 87% 30.03 in 10.0 mi ESE 3.5 mph - N/A   Clear
5:55 AM 55.0 °F 52.0 °F 89% 30.03 in 10.0 mi East 3.5 mph - N/A   Clear
6:55 AM 57.0 °F 52.0 °F 83% 30.03 in 10.0 mi South 8.1 mph - N/A   Clear
7:55 AM 57.9 °F 51.1 °F 78% 30.03 in 10.0 mi South 6.9 mph - N/A   Clear
8:55 AM 64.0 °F 52.0 °F 65% 30.04 in 10.0 mi South 8.1 mph - N/A   Clear
9:55 AM 71.1 °F 52.0 °F 51% 30.03 in 10.0 mi South 8.1 mph - N/A   Clear
10:55 AM 79.0 °F 51.1 °F 38% 30.01 in 10.0 mi SSW 16.1 mph - N/A   Clear
11:55 AM 82.9 °F 51.1 °F 33% 30.00 in 10.0 mi South 18.4 mph 24.2 mph N/A   Clear
12:55 PM 86.0 °F 52.0 °F 31% 29.98 in 10.0 mi South 17.3 mph 23.0 mph N/A   Clear
1:55 PM 90.0 °F 48.9 °F 24% 29.94 in 10.0 mi SSW 20.7 mph 26.5 mph N/A   Clear
2:55 PM 90.0 °F 44.1 °F 20% 29.92 in 10.0 mi SSW 15.0 mph 26.5 mph N/A   Clear
3:55 PM 91.0 °F 43.0 °F 19% 29.91 in 10.0 mi South 15.0 mph 26.5 mph N/A   Clear
4:55 PM 89.1 °F 44.1 °F 21% 29.90 in 10.0 mi SSW 12.7 mph 24.2 mph N/A   Clear
5:55 PM 87.1 °F 41.0 °F 20% 29.89 in 10.0 mi South 17.3 mph 24.2 mph N/A   Clear
6:55 PM 78.1 °F 46.0 °F 32% 29.91 in 10.0 mi South 10.4 mph - N/A   Clear
7:55 PM 73.9 °F 46.9 °F 38% 29.92 in 10.0 mi South 11.5 mph - N/A   Clear
8:55 PM 73.9 °F 45.0 °F 35% 29.92 in 10.0 mi South 12.7 mph - N/A   Clear
9:55 PM 73.0 °F 45.0 °F 37% 29.93 in 10.0 mi South 13.8 mph - N/A   Clear
10:55 PM 70.0 °F 46.0 °F 42% 29.92 in 10.0 mi South 13.8 mph - N/A   Clear
11:55 PM 69.1 °F 45.0 °F 42% 29.93 in 10.0 mi South 16.1 mph - N/A   Clear